EWG6TF LPFR-EDDK

Flight info

Callsign EWG6TF
Flight time 2h 34m
Altitude 36000
Route NIRAK Y136 NAPES N747 PIMUR M30 OXACA DCT PARKA N858 DGO L176 LUSEM DCT LULUT DCT ADABI DCT BOKNO DCT DIBES DCT VIQAQ DCT TSU UN858 OQQAL DCT RANUX DCT VALEK DCT LUTAX UM163 DIK N853 ARCKY T853 IBESA T860 ERUKI ERUKI1C
Aircraft A320/M-SDE2E3FGIJ1RWXYZ/HB1

Departure

Time 2026-04-20 19:17
Airport Faro - Gago Coutinho International Airport (LPFR)

Arrival

Time 2026-04-20 21:52
Airport Cologne Bonn Airport (EDDK)
Time Latitude Longitude Altitude Speed Heading
2026-04-20 18:36 37.01934 -7.96974 21 ft 0 kts 10°
2026-04-20 19:07 37.01929 -7.96975 48 ft 4 kts 10°
2026-04-20 19:07 37.01902 -7.96981 20 ft 4 kts 10°
2026-04-20 19:08 37.01875 -7.96988 24 ft 4 kts 10°
2026-04-20 19:08 37.01824 -7.96999 22 ft 4 kts 17°
2026-04-20 19:08 37.01808 -7.97015 21 ft 4 kts 85°
2026-04-20 19:09 37.01810 -7.97048 20 ft 4 kts 100°
2026-04-20 19:09 37.01811 -7.97055 20 ft 0 kts 99°
2026-04-20 19:11 37.01810 -7.97049 20 ft 3 kts 99°
2026-04-20 19:11 37.01805 -7.97009 20 ft 7 kts 99°
2026-04-20 19:11 37.01795 -7.96938 20 ft 9 kts 99°
2026-04-20 19:12 37.01751 -7.96894 20 ft 10 kts 182°
2026-04-20 19:12 37.01708 -7.96906 20 ft 9 kts 201°
2026-04-20 19:12 37.01682 -7.96972 20 ft 11 kts 277°
2026-04-20 19:12 37.01698 -7.97085 20 ft 16 kts 280°
2026-04-20 19:13 37.01720 -7.97232 20 ft 17 kts 280°
2026-04-20 19:13 37.01739 -7.97369 20 ft 15 kts 280°
2026-04-20 19:13 37.01759 -7.97514 21 ft 19 kts 280°
2026-04-20 19:13 37.01781 -7.97670 20 ft 17 kts 279°
2026-04-20 19:14 37.01802 -7.97810 23 ft 17 kts 280°
2026-04-20 19:14 37.01822 -7.97954 20 ft 16 kts 279°
2026-04-20 19:14 37.01840 -7.98085 20 ft 15 kts 279°
2026-04-20 19:14 37.01860 -7.98228 23 ft 17 kts 280°
2026-04-20 19:15 37.01880 -7.98363 20 ft 15 kts 280°
2026-04-20 19:15 37.01897 -7.98482 20 ft 13 kts 278°
2026-04-20 19:15 37.01856 -7.98560 20 ft 11 kts 202°
2026-04-20 19:15 37.01791 -7.98578 21 ft 8 kts 189°
2026-04-20 19:16 37.01744 -7.98588 22 ft 6 kts 189°
2026-04-20 19:16 37.01729 -7.98574 22 ft 2 kts 124°
2026-04-20 19:16 37.01726 -7.98561 24 ft 0 kts 99°
2026-04-20 19:17 37.01717 -7.98493 23 ft 36 kts 100°
2026-04-20 19:17 37.01631 -7.97876 20 ft 105 kts 100°
2026-04-20 19:17 37.01472 -7.96749 42 ft 154 kts 98°
2026-04-20 19:17 37.01296 -7.95420 683 ft 155 kts 99°
2026-04-20 19:18 37.01110 -7.94095 1357 ft 154 kts 99°
2026-04-20 19:18 37.00899 -7.92738 1841 ft 168 kts 102°
2026-04-20 19:18 37.00663 -7.91234 2239 ft 183 kts 102°
2026-04-20 19:18 37.00427 -7.89607 2619 ft 198 kts 102°
2026-04-20 19:19 37.00183 -7.87847 2956 ft 212 kts 103°
2026-04-20 19:19 37.00065 -7.85965 3410 ft 223 kts 90°
2026-04-20 19:19 37.00464 -7.84025 3795 ft 243 kts 65°
2026-04-20 19:19 37.01466 -7.82179 4117 ft 269 kts 55°
2026-04-20 19:20 37.02606 -7.80250 4733 ft 279 kts 55°
2026-04-20 19:20 37.03779 -7.78281 5506 ft 284 kts 55°
2026-04-20 19:20 37.04952 -7.76307 6301 ft 287 kts 55°
2026-04-20 19:20 37.06151 -7.74280 7063 ft 292 kts 55°
2026-04-20 19:21 37.07368 -7.72219 7834 ft 296 kts 54°
2026-04-20 19:21 37.08600 -7.70129 8631 ft 300 kts 54°
2026-04-20 19:21 37.09848 -7.68013 9389 ft 305 kts 54°
2026-04-20 19:21 37.11117 -7.65859 10116 ft 310 kts 54°
2026-04-20 19:22 37.12441 -7.63605 10382 ft 333 kts 54°
2026-04-20 19:22 37.13860 -7.61183 10573 ft 356 kts 54°
2026-04-20 19:22 37.15365 -7.58614 10961 ft 369 kts 54°
2026-04-20 19:22 37.16894 -7.56004 11629 ft 373 kts 54°
2026-04-20 19:23 37.18423 -7.53395 12296 ft 377 kts 54°
2026-04-20 19:23 37.19983 -7.50735 12973 ft 381 kts 54°
2026-04-20 19:23 37.21554 -7.48039 13649 ft 384 kts 56°
2026-04-20 19:23 37.22846 -7.45095 14219 ft 387 kts 68°
2026-04-20 19:24 37.23925 -7.41990 14788 ft 391 kts 64°
2026-04-20 19:24 37.25265 -7.39001 15363 ft 395 kts 59°
2026-04-20 19:24 37.26776 -7.36102 15925 ft 399 kts 56°
2026-04-20 19:24 37.28371 -7.33225 16489 ft 403 kts 56°
2026-04-20 19:25 37.29982 -7.30329 17039 ft 406 kts 56°
2026-04-20 19:25 37.31580 -7.27377 17584 ft 410 kts 57°
2026-04-20 19:25 37.33135 -7.24409 18106 ft 413 kts 58°
2026-04-20 19:25 37.34699 -7.21348 18578 ft 417 kts 58°
2026-04-20 19:26 37.36256 -7.18256 19032 ft 420 kts 58°
2026-04-20 19:26 37.37813 -7.15142 19509 ft 422 kts 58°
2026-04-20 19:26 37.39379 -7.12004 19963 ft 425 kts 58°
2026-04-20 19:26 37.40960 -7.08846 20413 ft 428 kts 58°
2026-04-20 19:27 37.42561 -7.05665 20856 ft 431 kts 58°
2026-04-20 19:27 37.44173 -7.02471 21305 ft 434 kts 58°
2026-04-20 19:27 37.45795 -6.99256 21733 ft 437 kts 58°
2026-04-20 19:27 37.47428 -6.96020 22162 ft 439 kts 58°
2026-04-20 19:28 37.49072 -6.92756 22581 ft 442 kts 58°
2026-04-20 19:28 37.50720 -6.89470 22997 ft 445 kts 58°
2026-04-20 19:28 37.52376 -6.86163 23420 ft 448 kts 58°
2026-04-20 19:28 37.54041 -6.82832 23769 ft 450 kts 58°
2026-04-20 19:29 37.55716 -6.79480 24113 ft 452 kts 58°
2026-04-20 19:29 37.57398 -6.76118 24449 ft 455 kts 58°
2026-04-20 19:29 37.59092 -6.72733 24774 ft 457 kts 58°
2026-04-20 19:29 37.60789 -6.69333 25100 ft 459 kts 58°
2026-04-20 19:30 37.62493 -6.65914 25428 ft 462 kts 58°
2026-04-20 19:30 37.64206 -6.62470 25750 ft 464 kts 58°
2026-04-20 19:30 37.65926 -6.59014 26053 ft 466 kts 58°
2026-04-20 19:30 37.67653 -6.55540 26377 ft 469 kts 58°
2026-04-20 19:31 37.69390 -6.52041 26690 ft 471 kts 58°
2026-04-20 19:31 37.71216 -6.48670 26975 ft 473 kts 49°
2026-04-20 19:31 37.73608 -6.45824 27250 ft 474 kts 38°
2026-04-20 19:31 37.76179 -6.43210 27560 ft 475 kts 38°
2026-04-20 19:32 37.78765 -6.40596 27849 ft 477 kts 38°
2026-04-20 19:32 37.81368 -6.37966 28117 ft 480 kts 38°
2026-04-20 19:32 37.83982 -6.35322 28396 ft 482 kts 38°
2026-04-20 19:32 37.86601 -6.32667 28669 ft 484 kts 38°
2026-04-20 19:33 37.89233 -6.29994 28930 ft 486 kts 38°
2026-04-20 19:33 37.91867 -6.27316 29264 ft 486 kts 38°
2026-04-20 19:33 37.94501 -6.24634 29647 ft 485 kts 38°
2026-04-20 19:33 37.97129 -6.21951 30019 ft 484 kts 38°
2026-04-20 19:34 37.99747 -6.19272 30341 ft 483 kts 38°
2026-04-20 19:34 38.02368 -6.16587 30680 ft 482 kts 38°
2026-04-20 19:34 38.04942 -6.13953 30992 ft 482 kts 38°
2026-04-20 19:34 38.07546 -6.11288 31317 ft 481 kts 38°
2026-04-20 19:35 38.10149 -6.08622 31631 ft 480 kts 38°
2026-04-20 19:35 38.12738 -6.05964 32007 ft 478 kts 38°
2026-04-20 19:35 38.15320 -6.03309 32348 ft 476 kts 38°
2026-04-20 19:35 38.17893 -6.00665 32685 ft 475 kts 38°
2026-04-20 19:36 38.20460 -5.98027 33007 ft 474 kts 38°
2026-04-20 19:36 38.23026 -5.95386 33316 ft 474 kts 38°
2026-04-20 19:36 38.25586 -5.92746 33637 ft 473 kts 38°
2026-04-20 19:36 38.28138 -5.90115 33956 ft 472 kts 38°
2026-04-20 19:37 38.30686 -5.87489 34217 ft 471 kts 38°
2026-04-20 19:37 38.33237 -5.84858 34472 ft 471 kts 38°
2026-04-20 19:37 38.35783 -5.82228 34730 ft 471 kts 38°
2026-04-20 19:37 38.38287 -5.79634 34976 ft 470 kts 38°
2026-04-20 19:38 38.40821 -5.77006 35224 ft 470 kts 38°
2026-04-20 19:38 38.43354 -5.74380 35455 ft 469 kts 38°
2026-04-20 19:38 38.45884 -5.71755 35690 ft 469 kts 38°
2026-04-20 19:38 38.48413 -5.69131 35858 ft 468 kts 38°
2026-04-20 19:39 38.50947 -5.66500 35904 ft 469 kts 38°
2026-04-20 19:39 38.56013 -5.61225 35901 ft 469 kts 38°
2026-04-20 19:40 38.61067 -5.55945 35902 ft 469 kts 38°
2026-04-20 19:40 38.66125 -5.50656 35896 ft 469 kts 38°
2026-04-20 19:41 38.71183 -5.45363 35899 ft 469 kts 38°
2026-04-20 19:41 38.76234 -5.40069 35895 ft 469 kts 38°
2026-04-20 19:42 38.81290 -5.34757 35905 ft 469 kts 39°
2026-04-20 19:42 38.86301 -5.29477 35901 ft 469 kts 38°
2026-04-20 19:43 38.91345 -5.24147 35909 ft 469 kts 39°
2026-04-20 19:43 38.96390 -5.18810 35910 ft 469 kts 38°
2026-04-20 19:44 39.01552 -5.13695 35926 ft 468 kts 31°
2026-04-20 19:44 39.07037 -5.09175 35918 ft 468 kts 31°
2026-04-20 19:45 39.12528 -5.04647 35919 ft 468 kts 31°
2026-04-20 19:45 39.18005 -5.00114 35918 ft 468 kts 32°
2026-04-20 19:46 39.23437 -4.95591 35922 ft 468 kts 32°
2026-04-20 19:46 39.28915 -4.91024 35926 ft 468 kts 31°
2026-04-20 19:47 39.34384 -4.86478 35934 ft 468 kts 31°
2026-04-20 19:47 39.39861 -4.81929 35937 ft 468 kts 31°
2026-04-20 19:48 39.45332 -4.77352 35936 ft 468 kts 32°
2026-04-20 19:48 39.50809 -4.72759 35946 ft 468 kts 31°
2026-04-20 19:49 39.56237 -4.68191 35944 ft 468 kts 32°
2026-04-20 19:49 39.61701 -4.63588 35935 ft 468 kts 31°
2026-04-20 19:50 39.67174 -4.58985 35930 ft 468 kts 32°
2026-04-20 19:50 39.72637 -4.54376 35933 ft 468 kts 31°
2026-04-20 19:51 39.78083 -4.49766 35927 ft 468 kts 31°
2026-04-20 19:51 39.83549 -4.45136 35925 ft 468 kts 31°
2026-04-20 19:52 39.88969 -4.40527 35921 ft 468 kts 32°
2026-04-20 19:52 39.94429 -4.35882 35920 ft 468 kts 32°
2026-04-20 19:53 40.00109 -4.31806 35919 ft 466 kts 22°
2026-04-20 19:53 40.05988 -4.28242 35911 ft 466 kts 22°
2026-04-20 19:54 40.11874 -4.24653 35906 ft 467 kts 23°
2026-04-20 19:54 40.17758 -4.21045 35927 ft 467 kts 23°
2026-04-20 19:55 40.23645 -4.17433 35924 ft 468 kts 23°
2026-04-20 19:55 40.29547 -4.13817 35927 ft 468 kts 23°
2026-04-20 19:56 40.34448 -4.10805 35933 ft 468 kts 23°
2026-04-20 19:56 40.41344 -4.06556 35956 ft 468 kts 22°
2026-04-20 19:57 40.47234 -4.02915 35966 ft 468 kts 22°
2026-04-20 19:57 40.53145 -3.99262 35977 ft 468 kts 23°
2026-04-20 19:58 40.59037 -3.95615 35995 ft 468 kts 23°
2026-04-20 19:58 40.64935 -3.91949 36007 ft 468 kts 23°
2026-04-20 19:59 40.70786 -3.88309 36004 ft 468 kts 22°
2026-04-20 19:59 40.76675 -3.84645 36005 ft 468 kts 23°
2026-04-20 20:00 40.82563 -3.80965 35968 ft 468 kts 22°
2026-04-20 20:00 40.88445 -3.77280 35989 ft 468 kts 22°
2026-04-20 20:01 40.94324 -3.73589 35992 ft 468 kts 22°
2026-04-20 20:01 41.00203 -3.69894 35985 ft 468 kts 22°
2026-04-20 20:02 41.06084 -3.66196 35984 ft 468 kts 22°
2026-04-20 20:02 41.11961 -3.62489 35984 ft 467 kts 22°
2026-04-20 20:03 41.17851 -3.58853 35988 ft 466 kts 20°
2026-04-20 20:03 41.23812 -3.55596 35981 ft 465 kts 18°
2026-04-20 20:04 41.29831 -3.52446 35977 ft 465 kts 18°
2026-04-20 20:04 41.35838 -3.49223 35973 ft 465 kts 19°
2026-04-20 20:05 41.40844 -3.46465 35966 ft 465 kts 19°
2026-04-20 20:05 41.46777 -3.43176 35958 ft 465 kts 19°
2026-04-20 20:06 41.52749 -3.39884 35973 ft 464 kts 19°
2026-04-20 20:06 41.58722 -3.36596 35965 ft 464 kts 19°
2026-04-20 20:07 41.64686 -3.33308 35959 ft 463 kts 19°
2026-04-20 20:07 41.70645 -3.30006 35952 ft 463 kts 19°
2026-04-20 20:08 41.76596 -3.26691 35962 ft 463 kts 19°
2026-04-20 20:08 41.82548 -3.23384 35959 ft 463 kts 19°
2026-04-20 20:09 41.88511 -3.20071 35958 ft 463 kts 19°
2026-04-20 20:09 41.94430 -3.16770 35983 ft 464 kts 19°
2026-04-20 20:10 42.00390 -3.13433 35986 ft 464 kts 19°
2026-04-20 20:10 42.06343 -3.10094 35980 ft 464 kts 19°
2026-04-20 20:11 42.12299 -3.06752 35981 ft 463 kts 19°
2026-04-20 20:11 42.18258 -3.03401 35977 ft 463 kts 19°
2026-04-20 20:12 42.24207 -3.00045 35976 ft 464 kts 19°
2026-04-20 20:12 42.30159 -2.96672 35969 ft 464 kts 19°
2026-04-20 20:13 42.39080 -2.91611 35983 ft 463 kts 19°
2026-04-20 20:13 42.44894 -2.87963 35970 ft 467 kts 28°
2026-04-20 20:14 42.49997 -2.82464 35963 ft 471 kts 39°
2026-04-20 20:14 42.54887 -2.76565 35962 ft 471 kts 39°
2026-04-20 20:15 42.59789 -2.70660 35964 ft 471 kts 39°
2026-04-20 20:15 42.64686 -2.64745 35958 ft 471 kts 39°
2026-04-20 20:16 42.69580 -2.58813 35961 ft 471 kts 39°
2026-04-20 20:16 42.74465 -2.52875 35961 ft 471 kts 39°
2026-04-20 20:17 42.79352 -2.46930 35961 ft 471 kts 39°
2026-04-20 20:17 42.84231 -2.40981 35959 ft 471 kts 39°
2026-04-20 20:18 42.89077 -2.35052 35965 ft 471 kts 39°
2026-04-20 20:18 42.93982 -2.29038 35957 ft 471 kts 39°
2026-04-20 20:19 42.98822 -2.23092 35962 ft 471 kts 39°
2026-04-20 20:19 43.03686 -2.17102 35970 ft 470 kts 39°
2026-04-20 20:20 43.08530 -2.11104 35964 ft 470 kts 39°
2026-04-20 20:20 43.13378 -2.05099 35964 ft 470 kts 39°
2026-04-20 20:21 43.18228 -1.99096 35958 ft 470 kts 39°
2026-04-20 20:21 43.23069 -1.93078 35958 ft 469 kts 39°
2026-04-20 20:22 43.27902 -1.87052 35954 ft 469 kts 39°
2026-04-20 20:22 43.32958 -1.81590 35955 ft 463 kts 26°
2026-04-20 20:23 43.38536 -1.77190 35944 ft 463 kts 27°
2026-04-20 20:23 43.43978 -1.72432 35956 ft 464 kts 30°
2026-04-20 20:24 43.49328 -1.67440 35954 ft 464 kts 31°
2026-04-20 20:24 43.54684 -1.62476 35950 ft 464 kts 30°
2026-04-20 20:25 43.60070 -1.57596 35941 ft 463 kts 30°
2026-04-20 20:25 43.65465 -1.52731 35949 ft 463 kts 30°
2026-04-20 20:26 43.70854 -1.47838 35945 ft 463 kts 30°
2026-04-20 20:26 43.76230 -1.42916 35942 ft 463 kts 30°
2026-04-20 20:27 43.81564 -1.38023 35940 ft 463 kts 30°
2026-04-20 20:27 43.86943 -1.33094 35946 ft 464 kts 30°
2026-04-20 20:28 43.92331 -1.28145 35946 ft 464 kts 30°
2026-04-20 20:28 43.97681 -1.23210 35944 ft 463 kts 30°
2026-04-20 20:29 44.03051 -1.18247 35953 ft 463 kts 30°
2026-04-20 20:29 44.08421 -1.13285 35948 ft 464 kts 30°
2026-04-20 20:30 44.13791 -1.08306 35946 ft 464 kts 30°
2026-04-20 20:30 44.19157 -1.03327 35943 ft 464 kts 30°
2026-04-20 20:31 44.24523 -0.98333 35948 ft 464 kts 30°
2026-04-20 20:31 44.29880 -0.93332 35946 ft 463 kts 30°
2026-04-20 20:32 44.35245 -0.88307 35946 ft 463 kts 30°
2026-04-20 20:32 44.40641 -0.83537 35944 ft 459 kts 22°
2026-04-20 20:33 44.46463 -0.79952 35960 ft 457 kts 19°
2026-04-20 20:33 44.52299 -0.76398 35962 ft 457 kts 19°
2026-04-20 20:34 44.58121 -0.72834 35967 ft 456 kts 19°
2026-04-20 20:34 44.63935 -0.69267 35986 ft 456 kts 19°
2026-04-20 20:35 44.69711 -0.65724 35987 ft 455 kts 19°
2026-04-20 20:35 44.75517 -0.62161 35987 ft 455 kts 19°
2026-04-20 20:36 44.81328 -0.58576 35986 ft 455 kts 19°
2026-04-20 20:36 44.87121 -0.54992 35979 ft 455 kts 19°
2026-04-20 20:37 44.92918 -0.51398 35974 ft 455 kts 19°
2026-04-20 20:37 44.98713 -0.47796 35967 ft 455 kts 19°
2026-04-20 20:38 45.04477 -0.44218 35969 ft 455 kts 19°
2026-04-20 20:38 45.10271 -0.40614 35968 ft 455 kts 19°
2026-04-20 20:39 45.16061 -0.36991 35973 ft 455 kts 19°
2026-04-20 20:39 45.21848 -0.33358 35986 ft 455 kts 19°
2026-04-20 20:40 45.27632 -0.29725 35984 ft 455 kts 19°
2026-04-20 20:40 45.33416 -0.26079 35985 ft 455 kts 19°
2026-04-20 20:41 45.39162 -0.22453 36009 ft 455 kts 19°
2026-04-20 20:41 45.44948 -0.18805 35995 ft 454 kts 19°
2026-04-20 20:42 45.50726 -0.15151 35999 ft 455 kts 19°
2026-04-20 20:42 45.56508 -0.11486 36001 ft 454 kts 19°
2026-04-20 20:43 45.62287 -0.07810 36017 ft 455 kts 19°
2026-04-20 20:43 45.68065 -0.04126 36012 ft 455 kts 19°
2026-04-20 20:44 45.73835 -0.00429 36018 ft 454 kts 19°
2026-04-20 20:44 45.79573 0.03251 36027 ft 454 kts 18°
2026-04-20 20:45 45.85340 0.06946 36022 ft 454 kts 18°
2026-04-20 20:45 45.91099 0.10654 36020 ft 453 kts 18°
2026-04-20 20:46 45.96848 0.14367 36019 ft 453 kts 19°
2026-04-20 20:46 46.02594 0.18087 36042 ft 453 kts 18°
2026-04-20 20:47 46.08340 0.21803 36040 ft 452 kts 18°
2026-04-20 20:47 46.14082 0.25522 36039 ft 452 kts 18°
2026-04-20 20:48 46.19819 0.29256 36066 ft 452 kts 19°
2026-04-20 20:48 46.25547 0.32997 36061 ft 451 kts 19°
2026-04-20 20:49 46.31267 0.36732 36056 ft 451 kts 19°
2026-04-20 20:49 46.36990 0.40487 36086 ft 451 kts 18°
2026-04-20 20:50 46.42671 0.44220 36083 ft 451 kts 19°
2026-04-20 20:50 46.48372 0.47984 36076 ft 450 kts 19°
2026-04-20 20:51 46.54076 0.51752 36070 ft 450 kts 18°
2026-04-20 20:51 46.59963 0.54379 36085 ft 440 kts
2026-04-20 20:52 46.65949 0.56322 36073 ft 440 kts
2026-04-20 20:52 46.71924 0.58281 36068 ft 440 kts
2026-04-20 20:53 46.77899 0.60262 36069 ft 441 kts
2026-04-20 20:53 46.83879 0.62250 36074 ft 441 kts
2026-04-20 20:54 46.89860 0.64232 36071 ft 441 kts
2026-04-20 20:54 46.95802 0.66215 36079 ft 441 kts
2026-04-20 20:55 47.01783 0.68214 36089 ft 441 kts
2026-04-20 20:55 47.07536 0.71673 36084 ft 456 kts 25°
2026-04-20 20:56 47.12032 0.75712 36085 ft 456 kts 25°
2026-04-20 20:56 47.17464 0.80553 36090 ft 456 kts 25°
2026-04-20 20:57 47.22897 0.85386 36108 ft 457 kts 25°
2026-04-20 20:57 47.28338 0.90259 36101 ft 457 kts 25°
2026-04-20 20:58 47.33776 0.95147 36086 ft 458 kts 25°
2026-04-20 20:58 47.39213 1.00057 36111 ft 458 kts 25°
2026-04-20 20:59 47.44657 1.04981 36102 ft 458 kts 26°
2026-04-20 20:59 47.50059 1.09862 36100 ft 458 kts 25°
2026-04-20 21:00 47.55591 1.14505 36100 ft 456 kts 22°
2026-04-20 21:00 47.61225 1.18788 36116 ft 455 kts 21°
2026-04-20 21:01 47.66873 1.23057 36116 ft 455 kts 21°
2026-04-20 21:01 47.72490 1.27447 36129 ft 456 kts 22°
2026-04-20 21:02 47.78088 1.31882 36124 ft 456 kts 22°
2026-04-20 21:02 47.83651 1.36293 36154 ft 456 kts 21°
2026-04-20 21:03 47.89250 1.40718 36155 ft 455 kts 21°
2026-04-20 21:03 47.94841 1.45145 36149 ft 455 kts 22°
2026-04-20 21:04 48.00432 1.49588 36160 ft 455 kts 21°
2026-04-20 21:04 48.06018 1.54034 36158 ft 455 kts 21°
2026-04-20 21:05 48.11600 1.58499 36148 ft 455 kts 21°
2026-04-20 21:05 48.17181 1.62977 36142 ft 454 kts 21°
2026-04-20 21:06 48.22759 1.67446 36167 ft 454 kts 22°
2026-04-20 21:06 48.28295 1.71896 36170 ft 454 kts 22°
2026-04-20 21:07 48.33867 1.76385 36169 ft 454 kts 22°
2026-04-20 21:07 48.39420 1.80882 36170 ft 453 kts 22°
2026-04-20 21:08 48.44971 1.85389 36187 ft 453 kts 23°
2026-04-20 21:08 48.50520 1.89894 36182 ft 453 kts 23°
2026-04-20 21:09 48.56063 1.94403 36183 ft 452 kts 23°
2026-04-20 21:09 48.61605 1.98934 36177 ft 452 kts 23°
2026-04-20 21:10 48.67102 2.03445 36185 ft 452 kts 23°
2026-04-20 21:10 48.72351 2.08772 36179 ft 463 kts 39°
2026-04-20 21:11 48.76206 2.16688 36172 ft 476 kts 60°
2026-04-20 21:11 48.77393 2.21402 36166 ft 481 kts 71°
2026-04-20 21:11 48.78276 2.26299 36159 ft 482 kts 71°
2026-04-20 21:12 48.80033 2.36120 36179 ft 483 kts 71°
2026-04-20 21:12 48.81797 2.45969 36178 ft 483 kts 71°
2026-04-20 21:13 48.83553 2.55810 36184 ft 483 kts 71°
2026-04-20 21:13 48.85291 2.65674 36186 ft 484 kts 71°
2026-04-20 21:14 48.87012 2.75483 36183 ft 484 kts 71°
2026-04-20 21:14 48.88742 2.85362 36176 ft 484 kts 71°
2026-04-20 21:15 48.90459 2.95261 36178 ft 484 kts 71°
2026-04-20 21:15 48.92164 3.05162 36177 ft 484 kts 71°
2026-04-20 21:16 48.93862 3.15061 36194 ft 484 kts 71°
2026-04-20 21:16 48.95570 3.24970 36188 ft 484 kts 71°
2026-04-20 21:17 48.97265 3.34889 36186 ft 484 kts 71°
2026-04-20 21:17 48.98941 3.44813 36183 ft 484 kts 72°
2026-04-20 21:18 49.00599 3.54755 36190 ft 484 kts 72°
2026-04-20 21:18 49.02251 3.64697 36194 ft 484 kts 72°
2026-04-20 21:19 49.03906 3.74647 36193 ft 485 kts 72°
2026-04-20 21:20 49.06371 3.89611 36184 ft 485 kts 72°
2026-04-20 21:20 49.08000 3.99607 36185 ft 486 kts 72°
2026-04-20 21:21 49.09617 4.09556 36185 ft 486 kts 72°
2026-04-20 21:21 49.11237 4.19572 36186 ft 486 kts 72°
2026-04-20 21:22 49.12839 4.29592 36186 ft 486 kts 72°
2026-04-20 21:22 49.14770 4.39432 36185 ft 480 kts 63°
2026-04-20 21:23 49.17673 4.48552 36188 ft 471 kts 48°
2026-04-20 21:23 49.19857 4.52202 36182 ft 462 kts 37°
2026-04-20 21:23 49.22216 4.55534 36201 ft 462 kts 37°
2026-04-20 21:24 49.26962 4.62196 36167 ft 464 kts 37°
2026-04-20 21:24 49.31731 4.68870 36163 ft 465 kts 37°
2026-04-20 21:25 49.36494 4.75575 36169 ft 466 kts 37°
2026-04-20 21:25 49.41258 4.82326 36167 ft 466 kts 37°
2026-04-20 21:26 49.45990 4.89055 36191 ft 467 kts 37°
2026-04-20 21:26 49.50755 4.95844 36199 ft 467 kts 37°
2026-04-20 21:27 49.55521 5.02642 36196 ft 467 kts 37°
2026-04-20 21:27 49.60280 5.09454 36195 ft 467 kts 37°
2026-04-20 21:28 49.65042 5.16293 36217 ft 467 kts 37°
2026-04-20 21:28 49.69771 5.23092 36215 ft 467 kts 37°
2026-04-20 21:29 49.74518 5.29962 35900 ft 467 kts 37°
2026-04-20 21:29 49.76893 5.33400 35671 ft 467 kts 36°
2026-04-20 21:29 49.79269 5.36844 35433 ft 468 kts 36°
2026-04-20 21:29 49.81633 5.40295 35190 ft 468 kts 36°
2026-04-20 21:30 49.84001 5.43779 34951 ft 469 kts 36°
2026-04-20 21:30 49.86359 5.47268 34767 ft 468 kts 37°
2026-04-20 21:30 49.88716 5.50764 34533 ft 468 kts 37°
2026-04-20 21:30 49.91070 5.54255 34304 ft 468 kts 37°
2026-04-20 21:31 49.93423 5.57753 34056 ft 469 kts 37°
2026-04-20 21:31 49.95776 5.61260 33783 ft 469 kts 37°
2026-04-20 21:31 49.98139 5.64783 32911 ft 474 kts 36°
2026-04-20 21:31 50.00536 5.68356 31797 ft 480 kts 36°
2026-04-20 21:32 50.02953 5.71966 30751 ft 484 kts 36°
2026-04-20 21:32 50.05391 5.75611 29798 ft 486 kts 37°
2026-04-20 21:32 50.07788 5.79202 28843 ft 483 kts 38°
2026-04-20 21:32 50.10188 5.82828 27974 ft 479 kts 39°
2026-04-20 21:33 50.12565 5.86458 26971 ft 478 kts 40°
2026-04-20 21:33 50.14907 5.90068 26315 ft 469 kts 40°
2026-04-20 21:33 50.17215 5.93636 25568 ft 464 kts 40°
2026-04-20 21:33 50.19489 5.97155 24777 ft 459 kts 41°
2026-04-20 21:34 50.21734 6.00626 24198 ft 449 kts 42°
2026-04-20 21:34 50.23949 6.04034 23437 ft 444 kts 42°
2026-04-20 21:34 50.26135 6.07401 22696 ft 438 kts 42°
2026-04-20 21:34 50.28290 6.10730 22032 ft 432 kts 44°
2026-04-20 21:35 50.30520 6.13830 21252 ft 427 kts 35°
2026-04-20 21:35 50.32970 6.16358 20675 ft 419 kts 32°
2026-04-20 21:35 50.35374 6.18801 20103 ft 413 kts 32°
2026-04-20 21:35 50.37796 6.21280 19557 ft 407 kts 32°
2026-04-20 21:36 50.40113 6.23665 19036 ft 401 kts 33°
2026-04-20 21:36 50.42429 6.26063 18518 ft 395 kts 33°
2026-04-20 21:36 50.44712 6.28425 17964 ft 390 kts 33°
2026-04-20 21:36 50.46930 6.30807 17449 ft 384 kts 38°
2026-04-20 21:37 50.48849 6.33669 16944 ft 379 kts 49°
2026-04-20 21:37 50.50367 6.37014 16412 ft 375 kts 60°
2026-04-20 21:37 50.51474 6.40704 15887 ft 372 kts 66°
2026-04-20 21:37 50.52484 6.44429 15345 ft 369 kts 66°
2026-04-20 21:38 50.53487 6.48136 14812 ft 367 kts 66°
2026-04-20 21:38 50.54483 6.51817 14251 ft 365 kts 67°
2026-04-20 21:38 50.55479 6.55485 13669 ft 364 kts 67°
2026-04-20 21:38 50.56469 6.59125 13101 ft 360 kts 67°
2026-04-20 21:39 50.57439 6.62689 12529 ft 357 kts 67°
2026-04-20 21:39 50.58411 6.66271 11959 ft 354 kts 67°
2026-04-20 21:39 50.59373 6.69817 11368 ft 351 kts 67°
2026-04-20 21:39 50.60320 6.73332 10928 ft 344 kts 68°
2026-04-20 21:40 50.60953 6.76872 10795 ft 328 kts 80°
2026-04-20 21:40 50.61224 6.80349 10670 ft 314 kts 83°
2026-04-20 21:40 50.61475 6.83695 10546 ft 301 kts 83°
2026-04-20 21:40 50.61720 6.86906 10422 ft 290 kts 83°
2026-04-20 21:41 50.61956 6.90005 10260 ft 280 kts 83°
2026-04-20 21:41 50.62182 6.93023 10052 ft 275 kts 83°
2026-04-20 21:41 50.62402 6.95976 9913 ft 266 kts 83°
2026-04-20 21:41 50.62612 6.98819 9785 ft 256 kts 83°
2026-04-20 21:42 50.62813 7.01557 9653 ft 247 kts 83°
2026-04-20 21:42 50.63009 7.04229 9302 ft 246 kts 83°
2026-04-20 21:42 50.63202 7.06869 8898 ft 245 kts 82°
2026-04-20 21:42 50.63400 7.09537 8403 ft 245 kts 82°
2026-04-20 21:43 50.63598 7.12200 7907 ft 244 kts 82°
2026-04-20 21:43 50.63793 7.14853 7417 ft 244 kts 82°
2026-04-20 21:43 50.63987 7.17509 7026 ft 244 kts 82°
2026-04-20 21:43 50.64179 7.20162 6683 ft 243 kts 81°
2026-04-20 21:44 50.64372 7.22810 6320 ft 243 kts 81°
2026-04-20 21:44 50.64560 7.25431 6072 ft 237 kts 81°
2026-04-20 21:44 50.64734 7.27979 5805 ft 233 kts 81°
2026-04-20 21:44 50.64903 7.30509 5487 ft 231 kts 82°
2026-04-20 21:45 50.65076 7.33039 5130 ft 232 kts 81°
2026-04-20 21:45 50.65393 7.35508 4790 ft 228 kts 62°
2026-04-20 21:45 50.65989 7.36833 4579 ft 223 kts 40°
2026-04-20 21:45 50.67342 7.37891 4237 ft 219 kts
2026-04-20 21:46 50.68852 7.37757 3882 ft 219 kts 347°
2026-04-20 21:46 50.70312 7.37137 3659 ft 213 kts 344°
2026-04-20 21:46 50.71682 7.36361 3505 ft 207 kts 330°
2026-04-20 21:46 50.72782 7.34931 3356 ft 202 kts 319°
2026-04-20 21:47 50.73796 7.33466 3250 ft 192 kts 320°
2026-04-20 21:47 50.74744 7.32100 3168 ft 177 kts 320°
2026-04-20 21:47 50.75618 7.30839 2989 ft 170 kts 320°
2026-04-20 21:47 50.76486 7.29591 2781 ft 167 kts 320°
2026-04-20 21:48 50.77340 7.28356 2564 ft 165 kts 321°
2026-04-20 21:48 50.78193 7.27141 2321 ft 164 kts 320°
2026-04-20 21:48 50.79030 7.25925 2101 ft 163 kts 321°
2026-04-20 21:48 50.79862 7.24726 1869 ft 160 kts 321°
2026-04-20 21:49 50.80655 7.23579 1683 ft 150 kts 320°
2026-04-20 21:49 50.81398 7.22510 1514 ft 141 kts 321°
2026-04-20 21:49 50.82107 7.21488 1287 ft 138 kts 320°
2026-04-20 21:49 50.82814 7.20466 1032 ft 137 kts 319°
2026-04-20 21:50 50.83516 7.19454 836 ft 136 kts 319°
2026-04-20 21:50 50.84217 7.18447 679 ft 136 kts 319°
2026-04-20 21:50 50.84918 7.17439 511 ft 136 kts 319°
2026-04-20 21:50 50.85614 7.16430 353 ft 135 kts 318°
2026-04-20 21:51 50.86261 7.15495 293 ft 108 kts 318°
2026-04-20 21:51 50.86759 7.14777 268 ft 88 kts 317°
2026-04-20 21:51 50.87174 7.14173 248 ft 75 kts 317°
2026-04-20 21:51 50.87530 7.13660 240 ft 63 kts 317°
2026-04-20 21:52 50.87824 7.13230 239 ft 44 kts 317°
2026-04-20 21:52 50.87963 7.13027 239 ft 17 kts 316°
2026-04-20 21:52 50.88009 7.12872 239 ft 15 kts 278°
2026-04-20 21:52 50.87985 7.12719 237 ft 14 kts 239°
2026-04-20 21:53 50.87935 7.12643 232 ft 6 kts 213°
2026-04-20 21:53 50.87899 7.12619 232 ft 5 kts 198°
2026-04-20 21:53 50.87888 7.12583 233 ft 3 kts 289°
2026-04-20 21:53 50.87895 7.12552 234 ft 3 kts 288°
2026-04-20 21:54 50.87900 7.12527 232 ft 2 kts 288°
2026-04-20 21:54 50.87905 7.12508 235 ft 2 kts 288°
2026-04-20 21:54 50.87907 7.12496 233 ft 0 kts 288°